ROD SEARCH UCC SEARCH
ROAM Help
 


David B. Hooten, County Clerk
Oklahoma County, Oklahoma
 
 Advanced Search
 What is Phonetic Search?
Sort By : 

We Recommend using All Info when you want to see all party and legal information.

We Recommend using Party Info when you want to see all party information, but not additional legal information.

We Recommend using Legal Info when you want to see all legal information, but not additional party information.

We Recommend using Document Info only when searching by Instrument Number, Book or Page. Running searches by these fields and using this filter will allow you to see 1 document per row.


Mode: PC|Mobile|Tablet
Results: All Info | Party Info | Legal Info | Document Info
1 2 3 4 5 6 7 8 9 10 of 371 Go »

To view Plats, Click Here


ROD Results 1 - 30 of 11119 for . (0.01 seconds)

Filters Applied


Index Type

Party Role


Instrument #Date RecordedNameParty RoleDoc TypeOther NameBookPageLegacy NumberFirst ReferenceLegal DescriptionBriefcaseView ImageView Full Screen
193926478212/05/1939 12:00:00 AMALEXANDER DRUG COGranteeQUIT CLAIM DEEDCity of Oklahoma City5406201939264782LOT:19 BLK:35 SUB:OKLAHOMA CITY ORIGINAL
193926478212/05/1939 12:00:00 AMCity of Oklahoma CityGrantorQUIT CLAIM DEEDALEXANDER DRUG CO5406201939264782LOT:20 BLK:35 SUB:OKLAHOMA CITY ORIGINAL
193926478212/05/1939 12:00:00 AMCity of Oklahoma CityGrantorQUIT CLAIM DEEDALEXANDER DRUG CO5406201939264782LOT:21 BLK:35 SUB:OKLAHOMA CITY ORIGINAL
193926478212/05/1939 12:00:00 AMALEXANDER DRUG COGranteeQUIT CLAIM DEEDCity of Oklahoma City5406201939264782LOT:20 BLK:35 SUB:OKLAHOMA CITY ORIGINAL
193926478212/05/1939 12:00:00 AMALEXANDER DRUG COGranteeQUIT CLAIM DEEDCity of Oklahoma City5406201939264782LOT:21 BLK:35 SUB:OKLAHOMA CITY ORIGINAL
193926478212/05/1939 12:00:00 AMCity of Oklahoma CityGrantorQUIT CLAIM DEEDALEXANDER DRUG CO5406201939264782LOT:22 BLK:35 SUB:OKLAHOMA CITY ORIGINAL
193926478212/05/1939 12:00:00 AMALEXANDER DRUG COGranteeQUIT CLAIM DEEDCity of Oklahoma City5406201939264782LOT:22 BLK:35 SUB:OKLAHOMA CITY ORIGINAL
193926478212/05/1939 12:00:00 AMALEXANDER DRUG COGranteeQUIT CLAIM DEEDCity of Oklahoma City5406201939264782LOT:23 BLK:35 SUB:OKLAHOMA CITY ORIGINAL
193926478212/05/1939 12:00:00 AMCity of Oklahoma CityGrantorQUIT CLAIM DEEDALEXANDER DRUG CO5406201939264782LOT:23 BLK:35 SUB:OKLAHOMA CITY ORIGINAL
193926479112/05/1939 12:00:00 AMMILLER DELLGrantorQUIT CLAIM DEEDEWERT MJ5406251939264791LOT:43 BLK:6 SUB:BELL VERN
193926479112/05/1939 12:00:00 AMEWERT MJGranteeQUIT CLAIM DEEDMILLER DELL5406251939264791LOT:43 BLK:6 SUB:BELL VERN
193926479112/05/1939 12:00:00 AMMILLER DELLGrantorQUIT CLAIM DEEDEWERT MJ5406251939264791LOT:44 BLK:6 SUB:BELL VERN
193926480912/06/1939 12:00:00 AMWALKER GLADYSGranteeWARRANTY DEEDWALKER AE5492081939264809LOT:0 BLK:17 SUB:MEMORIAL PARK
193926479112/05/1939 12:00:00 AMEWERT MJGranteeQUIT CLAIM DEEDMILLER DELL5406251939264791LOT:44 BLK:6 SUB:BELL VERN
193926481412/06/1939 12:00:00 AMROSE CHARLES SRGrantorQUIT CLAIM DEEDKLINGLESMITH KATHRYN5085701939264814LOT:0 BLK:8 SUB:BEULAH HEIGHTS
193926480912/06/1939 12:00:00 AMWALKER AEGrantorWARRANTY DEEDWALKER GLADYS5492081939264809LOT:0 BLK:17 SUB:MEMORIAL PARK
193926481412/06/1939 12:00:00 AMKLINGLESMITH KATHRYNGranteeQUIT CLAIM DEEDROSE CHARLES SR5085701939264814LOT:0 BLK:8 SUB:BEULAH HEIGHTS
193926482312/06/1939 12:00:00 AMOKLAHOMA COUNTY TREASURERGrantorCERTIFICATE OF NON DEVELOPMENTGARRETT OTIS435211939264823
193926482312/06/1939 12:00:00 AMGARRETT OTISGranteeCERTIFICATE OF NON DEVELOPMENTOKLAHOMA COUNTY TREASURER435211939264823
193926482512/06/1939 12:00:00 AMOKLAHOMA COUNTY TREASURERGrantorCERTIFICATE OF NON DEVELOPMENTGARRETT OTIS447671939264825LOT:28 BLK:20 SUB:SOUTH PARK
193926482512/06/1939 12:00:00 AMGARRETT OTISGranteeCERTIFICATE OF NON DEVELOPMENTOKLAHOMA COUNTY TREASURER447671939264825LOT:28 BLK:20 SUB:SOUTH PARK
193926483412/06/1939 12:00:00 AMCAP HILL B&L ASSNGranteeASSIGNMENT OF RENTSFIFIELD VERNA E ET AL4232641939264834LOT:1 BLK:32 SUB:OLIVER PARK
193926483412/06/1939 12:00:00 AMFIFIELD VERNA E ET ALGrantorASSIGNMENT OF RENTSCAP HILL B&L ASSN4232641939264834LOT:2 BLK:32 SUB:OLIVER PARK
193926483412/06/1939 12:00:00 AMFIFIELD VERNA E ET ALGrantorASSIGNMENT OF RENTSCAP HILL B&L ASSN4232641939264834LOT:1 BLK:32 SUB:OLIVER PARK
193926483412/06/1939 12:00:00 AMCAP HILL B&L ASSNGranteeASSIGNMENT OF RENTSFIFIELD VERNA E ET AL4232641939264834LOT:2 BLK:32 SUB:OLIVER PARK
193926484112/06/1939 12:00:00 AMCRENSHAW ROYALTY COGranteeMINERAL DEEDTHOMPSON TEMPLE G4393331939264841LOT:6 BLK:1 SUB:MILITARY
193926484112/06/1939 12:00:00 AMTHOMPSON TEMPLE GGrantorMINERAL DEEDCRENSHAW ROYALTY CO4393331939264841LOT:6 BLK:1 SUB:MILITARY
193926484112/06/1939 12:00:00 AMTHOMPSON TEMPLE GGrantorMINERAL DEEDCRENSHAW ROYALTY CO4393331939264841LOT:7 BLK:1 SUB:MILITARY
193926484112/06/1939 12:00:00 AMCRENSHAW ROYALTY COGranteeMINERAL DEEDTHOMPSON TEMPLE G4393331939264841LOT:7 BLK:1 SUB:MILITARY
193926485712/06/1939 12:00:00 AMBRANDT FRED JRGranteeWARRANTY DEEDBRANDT REGINA5492141939264857LOT:73 BLK:0 SUB:NEWPORT HEIGHTS 2ND

Clicking on the Columns below will only sort the current page.

1 2 3 4 5 6 7 8 9 10 of 371 Go »


Copyright © Granicus, INC.
Results per page :